TimeEST,TemperatureF,Dew PointF,Humidity,Sea Level PressureIn,VisibilityMPH,Wind Direction,Wind SpeedMPH,Gust SpeedMPH,PrecipitationIn,Events,Conditions,WindDirDegrees,DateUTC
12:42 AM,39.2,39.2,100,29.98,2.5,ENE,3.5,-,N/A,,Overcast,60,2012-12-10 05:42:00
12:55 AM,39.7,39.7,100,29.97,2.5,ENE,3.5,-,N/A,,Overcast,60,2012-12-10 05:55:00
1:09 AM,39.2,39.2,100,29.96,1.8,ENE,3.5,-,N/A,,Overcast,60,2012-12-10 06:09:00
1:10 AM,39.2,39.2,100,29.96,2.0,ENE,3.5,-,N/A,,Overcast,60,2012-12-10 06:10:00
1:55 AM,39.9,39.9,100,29.93,2.0,NE,4.6,-,N/A,,Overcast,50,2012-12-10 06:55:00
2:05 AM,39.2,39.2,100,29.93,1.8,Calm,Calm,-,N/A,,Overcast,0,2012-12-10 07:05:00
2:44 AM,41.0,41.0,100,29.91,1.5,East,3.5,-,N/A,,Overcast,80,2012-12-10 07:44:00
2:55 AM,40.1,40.1,100,29.91,1.5,Calm,Calm,-,0.01,,Overcast,0,2012-12-10 07:55:00
3:03 AM,41.0,41.0,100,29.91,1.2,Calm,Calm,-,N/A,,Overcast,0,2012-12-10 08:03:00
3:55 AM,40.3,40.3,100,29.87,1.2,ENE,3.5,-,N/A,,Overcast,60,2012-12-10 08:55:00
3:57 AM,41.0,41.0,100,29.87,1.5,ENE,4.6,-,N/A,,Overcast,60,2012-12-10 08:57:00
4:17 AM,41.0,41.0,100,29.86,1.8,Calm,Calm,-,N/A,,Overcast,0,2012-12-10 09:17:00
4:22 AM,41.0,41.0,100,29.86,1.5,NE,3.5,-,N/A,,Overcast,40,2012-12-10 09:22:00
4:29 AM,41.0,41.0,100,29.86,1.2,Calm,Calm,-,N/A,,Overcast,0,2012-12-10 09:29:00
4:40 AM,41.0,41.0,100,29.86,1.5,Calm,Calm,-,N/A,,Overcast,0,2012-12-10 09:40:00
4:48 AM,41.0,41.0,100,29.85,1.2,ENE,3.5,-,N/A,,Overcast,60,2012-12-10 09:48:00
4:53 AM,41.0,41.0,100,29.85,1.0,NE,3.5,-,N/A,,Mist,50,2012-12-10 09:53:00
4:55 AM,40.6,40.6,100,29.85,1.0,Calm,Calm,-,N/A,,Mist,0,2012-12-10 09:55:00
5:00 AM,41.0,41.0,100,29.85,1.2,ENE,3.5,-,N/A,,Overcast,60,2012-12-10 10:00:00
5:03 AM,41.0,41.0,100,29.84,1.5,NE,3.5,-,N/A,,Overcast,50,2012-12-10 10:03:00
5:14 AM,41.0,41.0,100,29.84,1.2,NE,3.5,-,N/A,,Overcast,40,2012-12-10 10:14:00
5:22 AM,41.0,41.0,100,29.83,1.5,NE,3.5,-,N/A,,Overcast,50,2012-12-10 10:22:00
5:46 AM,41.0,41.0,100,29.83,1.2,Calm,Calm,-,N/A,,Overcast,0,2012-12-10 10:46:00
5:50 AM,41.0,41.0,100,29.83,1.5,Calm,Calm,-,N/A,,Overcast,0,2012-12-10 10:50:00
5:55 AM,41.0,41.0,100,29.83,1.5,Calm,Calm,-,0.01,,Overcast,0,2012-12-10 10:55:00
5:57 AM,41.0,41.0,100,29.82,1.2,Calm,Calm,-,N/A,,Overcast,0,2012-12-10 10:57:00
6:49 AM,41.0,41.0,100,29.81,1.0,Calm,Calm,-,N/A,,Mist,0,2012-12-10 11:49:00
6:55 AM,41.4,41.4,100,29.81,1.0,Calm,Calm,-,N/A,,Mist,0,2012-12-10 11:55:00
6:56 AM,41.0,41.0,100,29.81,0.8,Calm,Calm,-,N/A,,Mist,0,2012-12-10 11:56:00
6:58 AM,41.0,41.0,100,29.81,1.0,Calm,Calm,-,N/A,,Mist,0,2012-12-10 11:58:00
7:11 AM,41.0,41.0,100,29.81,0.8,Calm,Calm,-,N/A,,Mist,0,2012-12-10 12:11:00
7:15 AM,41.0,41.0,100,29.80,1.0,Calm,Calm,-,N/A,,Mist,0,2012-12-10 12:15:00
7:16 AM,41.0,41.0,100,29.80,0.8,Calm,Calm,-,N/A,,Mist,0,2012-12-10 12:16:00
7:19 AM,41.0,41.0,100,29.80,0.5,Calm,Calm,-,N/A,Fog,Fog,0,2012-12-10 12:19:00
7:55 AM,41.9,41.9,100,29.79,0.5,Calm,Calm,-,N/A,Fog,Fog,0,2012-12-10 12:55:00
8:01 AM,42.8,42.8,100,29.79,0.8,Calm,Calm,-,N/A,,Mist,0,2012-12-10 13:01:00
8:31 AM,42.8,42.8,100,29.79,1.0,Calm,Calm,-,N/A,,Mist,0,2012-12-10 13:31:00
8:55 AM,43.2,43.2,100,29.79,1.0,Calm,Calm,-,0.01,,Mist,0,2012-12-10 13:55:00
9:05 AM,42.8,42.8,100,29.79,1.0,Calm,Calm,-,N/A,,Mist,0,2012-12-10 14:05:00
9:23 AM,44.6,44.6,100,29.78,1.0,ENE,3.5,-,N/A,,Mist,60,2012-12-10 14:23:00
9:55 AM,44.4,44.4,100,29.76,1.0,East,3.5,-,N/A,,Mist,80,2012-12-10 14:55:00
10:01 AM,44.6,44.6,100,29.76,1.2,Variable,3.5,-,N/A,,Overcast,0,2012-12-10 15:01:00
10:14 AM,44.6,44.6,100,29.75,1.0,East,3.5,-,N/A,,Mist,90,2012-12-10 15:14:00
10:22 AM,44.6,44.6,100,29.75,1.2,Calm,Calm,-,N/A,,Overcast,0,2012-12-10 15:22:00
10:29 AM,44.6,44.6,100,29.75,1.5,Calm,Calm,-,N/A,,Overcast,0,2012-12-10 15:29:00
10:33 AM,44.6,44.6,100,29.76,1.8,Calm,Calm,-,N/A,,Overcast,0,2012-12-10 15:33:00
10:39 AM,44.6,44.6,100,29.75,2.0,Calm,Calm,-,N/A,,Overcast,0,2012-12-10 15:39:00
10:41 AM,44.6,44.6,100,29.75,1.8,ENE,3.5,-,N/A,,Overcast,70,2012-12-10 15:41:00
10:55 AM,45.7,45.7,100,29.74,1.8,Calm,Calm,-,N/A,,Overcast,0,2012-12-10 15:55:00
10:57 AM,46.4,46.4,100,29.74,1.5,East,3.5,-,N/A,,Overcast,80,2012-12-10 15:57:00
11:04 AM,46.4,46.4,100,29.73,1.2,NE,3.5,-,N/A,,Overcast,40,2012-12-10 16:04:00
11:08 AM,46.4,46.4,100,29.73,1.0,Calm,Calm,-,N/A,,Mist,0,2012-12-10 16:08:00
11:13 AM,46.4,46.4,100,29.73,0.8,Calm,Calm,-,N/A,,Mist,0,2012-12-10 16:13:00
11:28 AM,46.4,46.4,100,29.71,0.5,Calm,Calm,-,N/A,Fog,Fog,0,2012-12-10 16:28:00
11:42 AM,46.4,46.4,100,29.76,0.5,SW,8.1,-,N/A,Fog-Rain,Light Rain,230,2012-12-10 16:42:00
11:55 AM,46.4,46.4,100,29.72,0.8,NW,3.5,-,0.05,Rain,Light Rain,320,2012-12-10 16:55:00
11:57 AM,46.4,46.4,100,29.73,1.0,Calm,Calm,-,N/A,Rain,Light Rain,0,2012-12-10 16:57:00
11:59 AM,46.4,46.4,100,29.72,1.2,Calm,Calm,-,N/A,Rain,Light Rain,0,2012-12-10 16:59:00
12:00 PM,46.4,46.4,100,29.72,1.5,Calm,Calm,-,N/A,,Light Drizzle,0,2012-12-10 17:00:00
12:01 PM,46.4,46.4,100,29.71,1.8,Calm,Calm,-,N/A,,Light Drizzle,0,2012-12-10 17:01:00
12:02 PM,46.4,46.4,100,29.71,2.0,Calm,Calm,-,N/A,,Light Drizzle,0,2012-12-10 17:02:00
12:05 PM,46.4,46.4,100,29.71,3.0,Calm,Calm,-,N/A,,Light Drizzle,0,2012-12-10 17:05:00
12:06 PM,46.4,46.4,100,29.71,3.0,Calm,Calm,-,N/A,,Overcast,0,2012-12-10 17:06:00
12:11 PM,46.4,46.4,100,29.71,4.0,Calm,Calm,-,N/A,,Overcast,0,2012-12-10 17:11:00
12:24 PM,46.4,46.4,100,29.69,5.0,Calm,Calm,-,N/A,,Overcast,0,2012-12-10 17:24:00
12:30 PM,46.4,46.4,100,29.69,5.0,Calm,Calm,-,N/A,,Light Drizzle,0,2012-12-10 17:30:00
12:32 PM,46.4,46.4,100,29.69,5.0,Calm,Calm,-,N/A,,Light Drizzle,0,2012-12-10 17:32:00
12:44 PM,46.4,46.4,100,29.67,5.0,Calm,Calm,-,N/A,,Overcast,0,2012-12-10 17:44:00
12:55 PM,47.1,47.1,100,29.66,1.0,Calm,Calm,-,0.00,,Overcast,0,2012-12-10 17:55:00
1:17 PM,48.2,48.2,100,29.66,2.0,ESE,3.5,-,N/A,,Overcast,120,2012-12-10 18:17:00
1:49 PM,48.2,48.2,100,29.64,2.0,Calm,Calm,-,N/A,,Light Drizzle,0,2012-12-10 18:49:00
1:58 PM,48.2,48.2,100,29.64,2.0,Calm,Calm,-,N/A,,Overcast,0,2012-12-10 18:58:00
2:02 PM,48.2,48.2,100,29.63,10.0,Calm,Calm,-,N/A,,Overcast,0,2012-12-10 19:02:00
2:09 PM,48.2,48.2,100,29.63,3.0,Calm,Calm,-,N/A,,Overcast,0,2012-12-10 19:09:00
2:14 PM,48.2,48.2,100,29.63,2.0,Calm,Calm,-,N/A,Rain,Light Rain,0,2012-12-10 19:14:00
2:27 PM,48.2,48.2,100,29.64,2.5,SE,3.5,-,N/A,Rain,Light Rain,130,2012-12-10 19:27:00
2:39 PM,48.2,48.2,100,29.62,1.8,ENE,3.5,-,N/A,Rain,Light Rain,60,2012-12-10 19:39:00
2:41 PM,48.2,48.2,100,29.62,1.5,NE,3.5,-,N/A,Rain,Light Rain,50,2012-12-10 19:41:00
2:43 PM,48.2,48.2,100,29.62,1.2,ENE,3.5,-,N/A,,Light Drizzle,60,2012-12-10 19:43:00
2:46 PM,48.2,48.2,100,29.61,1.0,ENE,3.5,-,N/A,,Light Drizzle,60,2012-12-10 19:46:00
2:52 PM,48.2,48.2,100,29.61,0.8,NE,3.5,-,N/A,,Light Drizzle,50,2012-12-10 19:52:00
2:55 PM,48.0,48.0,100,29.62,0.8,Calm,Calm,-,0.03,,Light Drizzle,0,2012-12-10 19:55:00
3:02 PM,48.2,48.2,100,29.62,0.8,Calm,Calm,-,N/A,,Mist,0,2012-12-10 20:02:00
3:09 PM,48.2,48.2,100,29.62,0.5,North,3.5,-,N/A,Fog,Fog,10,2012-12-10 20:09:00
3:22 PM,48.2,48.2,100,29.62,0.2,Calm,Calm,-,N/A,Fog,Fog,0,2012-12-10 20:22:00
3:48 PM,48.2,48.2,100,29.62,0.2,Calm,Calm,-,N/A,Fog-Rain,Light Rain,0,2012-12-10 20:48:00
3:55 PM,48.0,48.0,100,29.61,0.2,Calm,Calm,-,0.00,Fog-Rain,Light Rain,0,2012-12-10 20:55:00
4:10 PM,48.2,48.2,100,29.61,0.5,Calm,Calm,-,N/A,Fog,Light Drizzle,0,2012-12-10 21:10:00
4:15 PM,48.2,48.2,100,29.61,0.8,Calm,Calm,-,N/A,,Light Drizzle,0,2012-12-10 21:15:00
4:17 PM,48.2,48.2,100,29.61,1.0,Calm,Calm,-,N/A,,Light Drizzle,0,2012-12-10 21:17:00
4:19 PM,48.2,48.2,100,29.60,1.2,Calm,Calm,-,N/A,,Light Drizzle,0,2012-12-10 21:19:00
4:20 PM,48.2,48.2,100,29.61,1.5,Calm,Calm,-,N/A,,Light Drizzle,0,2012-12-10 21:20:00
4:21 PM,48.2,48.2,100,29.61,1.8,Calm,Calm,-,N/A,,Light Drizzle,0,2012-12-10 21:21:00
4:22 PM,48.2,48.2,100,29.61,2.0,Calm,Calm,-,N/A,,Light Drizzle,0,2012-12-10 21:22:00
4:30 PM,48.2,48.2,100,29.60,1.8,Calm,Calm,-,N/A,,Light Drizzle,0,2012-12-10 21:30:00
4:31 PM,48.2,48.2,100,29.60,1.5,Calm,Calm,-,N/A,,Light Drizzle,0,2012-12-10 21:31:00
4:33 PM,48.2,48.2,100,29.60,1.5,Calm,Calm,-,N/A,,Overcast,0,2012-12-10 21:33:00
4:40 PM,48.2,48.2,100,29.60,1.8,Calm,Calm,-,N/A,,Overcast,0,2012-12-10 21:40:00
4:41 PM,48.2,48.2,100,29.60,2.0,Calm,Calm,-,N/A,,Overcast,0,2012-12-10 21:41:00
4:47 PM,48.2,48.2,100,29.60,3.0,Calm,Calm,-,N/A,,Overcast,0,2012-12-10 21:47:00
4:55 PM,48.2,48.2,100,29.60,4.0,Calm,Calm,-,0.01,,Overcast,0,2012-12-10 21:55:00
5:41 PM,48.2,48.2,100,29.60,8.0,Calm,Calm,-,N/A,,Overcast,0,2012-12-10 22:41:00
5:55 PM,48.4,48.4,100,29.60,8.0,Calm,Calm,-,N/A,,Overcast,0,2012-12-10 22:55:00
6:22 PM,48.2,48.2,100,29.60,6.0,Calm,Calm,-,N/A,,Light Drizzle,0,2012-12-10 23:22:00
6:48 PM,48.2,48.2,100,29.60,2.5,Calm,Calm,-,N/A,,Light Drizzle,0,2012-12-10 23:48:00
6:50 PM,48.2,48.2,100,29.60,1.8,Calm,Calm,-,N/A,,Light Drizzle,0,2012-12-10 23:50:00
6:51 PM,48.2,48.2,100,29.60,1.5,Calm,Calm,-,N/A,,Light Drizzle,0,2012-12-10 23:51:00
6:52 PM,48.2,48.2,100,29.60,1.2,Calm,Calm,-,N/A,,Light Drizzle,0,2012-12-10 23:52:00
6:53 PM,48.2,48.2,100,29.60,1.0,Calm,Calm,-,N/A,,Light Drizzle,0,2012-12-10 23:53:00
6:55 PM,48.2,48.2,100,29.60,0.8,Calm,Calm,-,0.01,,Light Drizzle,0,2012-12-10 23:55:00
7:00 PM,48.2,48.2,100,29.60,0.8,Calm,Calm,-,N/A,,Mist,0,2012-12-11 00:00:00
7:03 PM,48.2,48.2,100,29.60,1.0,Calm,Calm,-,N/A,,Mist,0,2012-12-11 00:03:00
7:06 PM,48.2,48.2,100,29.59,1.2,Calm,Calm,-,N/A,,Overcast,0,2012-12-11 00:06:00
7:09 PM,48.2,48.2,100,29.60,1.5,Calm,Calm,-,N/A,,Overcast,0,2012-12-11 00:09:00
7:11 PM,48.2,48.2,100,29.59,1.8,Calm,Calm,-,N/A,,Overcast,0,2012-12-11 00:11:00
7:12 PM,48.2,48.2,100,29.59,2.0,Calm,Calm,-,N/A,,Overcast,0,2012-12-11 00:12:00
7:15 PM,48.2,48.2,100,29.60,3.0,Calm,Calm,-,N/A,,Overcast,0,2012-12-11 00:15:00
7:29 PM,48.2,48.2,100,29.60,2.5,Calm,Calm,-,N/A,,Overcast,0,2012-12-11 00:29:00
7:31 PM,48.2,48.2,100,29.60,1.8,Calm,Calm,-,N/A,,Overcast,0,2012-12-11 00:31:00
7:32 PM,48.2,48.2,100,29.60,1.5,Calm,Calm,-,N/A,,Overcast,0,2012-12-11 00:32:00
7:33 PM,48.2,48.2,100,29.60,1.2,Calm,Calm,-,N/A,,Overcast,0,2012-12-11 00:33:00
7:34 PM,48.2,48.2,100,29.59,1.0,Calm,Calm,-,N/A,,Mist,0,2012-12-11 00:34:00
7:36 PM,48.2,48.2,100,29.59,0.8,Calm,Calm,-,N/A,,Mist,0,2012-12-11 00:36:00
7:43 PM,48.2,48.2,100,29.59,0.5,Calm,Calm,-,N/A,Fog,Fog,0,2012-12-11 00:43:00
7:55 PM,48.2,48.2,100,29.59,0.5,Calm,Calm,-,0.00,Fog,Fog,0,2012-12-11 00:55:00
8:25 PM,48.2,48.2,100,29.58,0.2,Calm,Calm,-,N/A,Fog,Fog,0,2012-12-11 01:25:00
8:47 PM,48.2,48.2,100,29.58,0.5,Calm,Calm,-,N/A,Fog,Fog,0,2012-12-11 01:47:00
8:55 PM,48.6,48.6,100,29.58,0.5,Calm,Calm,-,N/A,Fog,Fog,0,2012-12-11 01:55:00
9:12 PM,48.2,48.2,100,29.59,0.5,Calm,Calm,-,N/A,Fog,Light Drizzle,0,2012-12-11 02:12:00
9:23 PM,48.2,48.2,100,29.59,0.8,Calm,Calm,-,N/A,Rain,Light Rain,0,2012-12-11 02:23:00
9:26 PM,48.2,48.2,100,29.59,0.8,Calm,Calm,-,N/A,Rain,Light Rain,0,2012-12-11 02:26:00
9:28 PM,48.2,48.2,100,29.59,1.0,SSW,3.5,-,N/A,Rain,Light Rain,200,2012-12-11 02:28:00
9:29 PM,48.2,48.2,100,29.59,1.0,South,3.5,-,N/A,Rain,Light Rain,190,2012-12-11 02:29:00
9:37 PM,48.2,48.2,100,29.59,1.2,Variable,5.8,-,N/A,Rain,Light Rain,0,2012-12-11 02:37:00
9:39 PM,50.0,50.0,100,29.60,1.5,Variable,4.6,-,N/A,,Light Drizzle,0,2012-12-11 02:39:00
9:40 PM,50.0,50.0,100,29.60,1.5,WNW,4.6,-,N/A,,Light Drizzle,290,2012-12-11 02:40:00
9:41 PM,50.0,50.0,100,29.60,2.0,WNW,5.8,-,N/A,,Light Drizzle,290,2012-12-11 02:41:00
9:42 PM,50.0,50.0,100,29.60,2.5,WNW,6.9,-,N/A,,Light Drizzle,290,2012-12-11 02:42:00
9:43 PM,51.8,51.8,100,29.60,3.0,WNW,6.9,-,N/A,,Light Drizzle,300,2012-12-11 02:43:00
9:44 PM,51.8,51.8,100,29.60,4.0,WNW,5.8,-,N/A,,Light Drizzle,290,2012-12-11 02:44:00
9:55 PM,52.3,52.3,100,29.60,10.0,West,6.9,-,0.02,,Light Drizzle,280,2012-12-11 02:55:00
10:11 PM,53.6,53.6,100,29.59,10.0,NNW,8.1,-,N/A,,Light Drizzle,330,2012-12-11 03:11:00
10:50 PM,48.2,48.2,100,29.62,10.0,NNW,20.7,34.5,N/A,,Overcast,340,2012-12-11 03:50:00
10:55 PM,47.3,47.3,100,29.62,10.0,NNW,19.6,31.1,0.01,,Overcast,340,2012-12-11 03:55:00
11:55 PM,46.8,43.7,89,29.66,10.0,NNW,17.3,29.9,N/A,,Overcast,330,2012-12-11 04:55:00